STARLINK-1746 (46588 NORAD) Tracking and Keplerian Element Data

This shows tracking and keplerian element data for the satellite.

Feedback or suggestion? Click here.




ElementValue
Catalog46588
NameSTARLINK-1746
Epoch Orbit956
Epoch Day336.25001157
Epoch Year2020
RAAN168.4583
Inclination52.9978
Eccentricity0.0002031
Argument of Perigee28.2614
Mean Anonmoly239.9197
Mean Motion15.62737643
Decay Rate-2.02E-05
L11 46588U 20070BJ 20336.25001157 -.00002020 00000-0 -16226-4 0 9992
L22 46588 52.9978 168.4583 0002031 28.2614 239.9197 15.62737643 9561

Live tracking and technical data element details for STARLINK-1746 (NORAD 46588). STARLINK-1746 can be tracked NOW for your location showing map with azimuth and elevation plus other details from your city location.

Track the satellite on the map from your city or location and see movement details for azimuth, elevation, latitude, longitude, range, height, and movement on the map or in text.







IsCatalogInMostPopularTable: catalog: 46588, numindb: 14
Update: records affected: 1



GetName: 46588 STARLINK-1746

Hit Count: updated at: Tue, 01 Dec 2020 21:03:36 GMT